Flag for Vanuatu Weather past 2 weeks in Port Vila, Vanuatu

Now
77 °F

Passing clouds.


Feels Like: 78 °F
Forecast: 81 / 88 °F
Wind: 2 mph from Northeast

Location: Bauerfield Efate

Current Time: Feb 2, 2015 at 5:48:03 AM

Latest Report: Feb 2, 2015 at 4:00 AM


Visibility: N/A

Pressure: 29.56 "Hg

Humidity: 100%

Dew point: 77 °F

Location of Port VilaLocation

Historic Weather in Port Vila — Graph

°F

Port Vila temperature yesterday

Maximum temperature yesterday: 91 °F (at 3:00 PM)
Minimum temperature yesterday: 79 °F (at 2:00 AM)
Average temperature yesterday: 83 °F

Past Weeks' High & Low Weather Summary

 TemperatureHumidityPressure
High91 °F (Feb 1, 3:00 PM)100% (Jan 19, 5:00 AM)29.86 "Hg (Jan 19, 5:00 AM)
Low70 °F (Jan 24, 5:00 AM)62% (Jan 18, 2:00 PM)29.53 "Hg (Jan 27, 2:00 PM)
Average81 °F85%29.70 "Hg
* Reported Jan 18 5:00 AM — Feb 2 4:00 AM, Port Vila, Weather by CustomWeather, © 2014

Note: Actual official high and low records may vary slightly from our data, if they occured in-between our weather recording intervals... More about our weather records

Advertising

Port Vila weather history for previous 24 hours

 ConditionsComfort  
Time TempWeatherWind HumidityBarometerVisibility
4:00 AM
Feb 2
77 °FPassing clouds.2 mph100%29.56 "HgN/A
3:00 AM79 °FPassing clouds.2 mph94%29.56 "HgN/A
2:00 AM79 °FPassing clouds.3 mph94%29.59 "HgN/A
1:00 AM79 °FPartly cloudy.2 mph94%29.59 "HgN/A
12:00 AM79 °FPassing clouds.2 mph94%29.62 "HgN/A
11:00 PM
Feb 1
79 °FPassing clouds.2 mph94%29.62 "HgN/A
10:00 PM79 °FPassing clouds.2 mph94%29.65 "HgN/A
9:00 PM81 °FPassing clouds.3 mph89%29.62 "HgN/A
7:00 PM84 °FPassing clouds.7 mph84%29.59 "HgN/A
6:00 PM88 °FScattered clouds.7 mph75%29.56 "HgN/A
5:00 PM88 °FPassing clouds.7 mph75%29.53 "HgN/A
4:00 PM91 °FScattered clouds.7 mph67%29.53 "HgN/A
3:00 PM91 °FScattered clouds.7 mph67%29.53 "HgN/A
10:00 AM88 °FScattered clouds.8 mph75%29.59 "HgN/A
9:00 AM88 °FScattered clouds.8 mph75%29.56 "HgN/A
8:00 AM86 °FScattered clouds.2 mph84%29.59 "HgN/A
6:00 AM79 °FScattered clouds.No wind94%29.59 "HgN/A
5:00 AM79 °FPassing clouds.No wind94%29.56 "HgN/A
Weather by CustomWeather, © 2014

See weather overviewHow to use our weather pages